Regional Weather Roundup
Issued by NWS

Home | Current Version | Previous Version | Graphics & Text | Print | Product List | Glossary Off
Versions: 1 2 3 4 5 6 7 8 9 10 11 12 13 14 15 16 17 18 19 20 21 22 23 24 25 26 27 28 29 30 31 32 33 34 35 36 37 38 39 40 41 42 43 44 45 46 47 48 49 50

000
ASUS43 KDTX 280810
RWRMI
MICHIGAN HOURLY REGIONAL WEATHER ROUNDUP
NATIONAL WEATHER SERVICE DETROIT/PONTIAC MI
400 AM EDT SAT MAR 28 2015

NOTE: "FAIR" INDICATES FEW OR NO CLOUDS BELOW 12,000 FEET WITH NO
SIGNIFICANT WEATHER AND/OR OBSTRUCTION TO VISIBILITY.

MIZ047>049-052>055-059>063-066>070-074>076-081>083-280900-
SOUTHEAST LOWER MICHIGAN

CITY           SKY/WX    TMP DP  RH WIND       PRES   REMARKS
ADRIAN         CLEAR     15   7  70 N5        30.18S
ALMA           CLEAR     13   6  72 NW3       30.21S
ANN ARBOR      CLEAR     15   6  67 NW8       30.16S
BAD AXE        CLOUDY    21  13  72 N8        30.15S
DETROIT CITY   CLOUDY    19   6  57 N8        30.16S
DETROIT        MOCLDY    17   7  64 NW8       30.18R
FLINT          CLEAR     15   6  67 NW8       30.17S
GROSSE ILE     CLOUDY    19   9  63 NW10G16   30.16R
HILLSDALE      CLEAR     15   6  65 CALM      30.15S
HOWELL         CLEAR     13   7  79 W5        30.16F

CITY           SKY/WX    TMP DP  RH WIND       PRES   REMARKS
JACKSON        CLEAR     13   6  74 CALM      30.17S
LAMBERTVILLE   CLEAR     18   9  68 N5        30.18S
LANSING        PTCLDY    15   8  73 W6        30.19F
LAPEER         NOT AVBL
MASON          CLEAR     14   8  76 CALM      30.18S
MONROE         CLOUDY    18  10  73 NW6       30.16R
MT. CLEMENS    FLURRIES  18  10  70 NW9       30.12S
PONTIAC        MOCLDY    14   6  70 NW10      30.13S
PORT HOPE        N/A     22   8  55 NE17G28   30.15R
PORT HURON     LGT SNOW  18  16  93 NW6       30.14S
TRI CITIES     CLEAR     16   5  62 NW10      30.20S
YPSILANTI      CLEAR     17   6  62 NW7       30.17S
$$
MIZ043>046-050>051-056>058-064>065-071>073-077>080-280900-
SOUTHWEST LOWER MICHIGAN

CITY           SKY/WX    TMP DP  RH WIND       PRES   REMARKS
BATTLE CREEK   PTCLDY    15   5  64 N6        30.18S
BENTON HARBOR  CLEAR     16   4  59 NE3       30.21S
BIG RAPIDS     CLEAR     10   5  79 CALM      30.20S
COLDWATER      CLEAR     17   9  69 E8        30.16F
HOLLAND        CLEAR     17   3  54 NE3       30.23R
GRAND RAPIDS   CLEAR     14   2  58 N5        30.21S
KALAMAZOO      CLEAR     17   3  54 N7        30.19S
MARSHALL       CLEAR     15   8  73 CALM      30.17S
MUSKEGON       CLEAR     15   4  61 NE5       30.23S
$$
MIZ016>042-280900-
NORTHERN LOWER MICHIGAN

CITY           SKY/WX    TMP DP  RH WIND       PRES   REMARKS
ALPENA         CLEAR     12   7  80 W3        30.20S
BEAVER ISLAND  CLEAR      5   2  88 CALM      30.24F
BELLAIRE       CLEAR      8   4  87 CALM      30.25S
CADILLAC       CLEAR      5   0  80 CALM      30.16S
CHARLEVOIX     CLEAR     10   6  82 CALM      30.27S
FRANKFORT      SUNNY     14   3  61 CALM      30.25R
GAYLORD        CLEAR      8   0  69 CALM      30.16F
GRAYLING       CLEAR      5   0  81 CALM      30.19S
HARBOR SPRINGS CLEAR      7   3  84 CALM      30.23S
HOUGHTON LAKE  CLEAR      8   2  76 NW3       30.19R
MANISTEE       CLEAR      9   3  78 CALM      30.24S
OSCODA         PTCLDY    13   8  79 NW8       30.19S
PELLSTON       CLEAR      5   1  83 NW5       30.23F
TRAVERSE CITY  CLEAR     10   5  80 CALM      30.23F
$$
MIZ007>008-015-280900-
EASTERN UPPER MICHIGAN

CITY           SKY/WX    TMP DP  RH WIND       PRES   REMARKS
KINROSS        CLEAR      1   1 100 NW5       30.21F
MACKINAC ISLAN CLEAR     11   6  81 N6        30.22S
NEWBERRY       CLEAR     -4  -6  92 CALM      30.22S
S. S. MARIE    CLEAR      5   1  83 NW3       30.21S
$$
MIZ004>006-011>014-085-280900-
CENTRAL UPPER MICHIGAN

CITY           SKY/WX    TMP DP  RH WIND       PRES   REMARKS
MANISTIQUE     CLEAR      3   1  90 N5        30.24S
ESCANABA       CLEAR      3   0  85 W3        30.25S
MENOMINEE      CLEAR     10   7  85 CALM      30.25S
SAWYER-GWINN   CLEAR     -5 -10  79 CALM      30.20R
$$
MIZ001>003-009>011-084-280900-
WESTERN UPPER MICHIGAN

CITY           SKY/WX    TMP DP  RH WIND       PRES   REMARKS
IRON MOUNTAIN  CLEAR      4  -3  73 CALM      30.20S
HOUGHTON       CLEAR      8   5  87 CALM      30.19R
COPPER HARBOR    N/A      3  -3  76 W7        30.22S
IRONWOOD       CLEAR      7   3  85 CALM      30.16S
$$

ABBREVIATIONS USED IN REMARKS
   TC - TEMPERATURE IN CELSIUS
  WCI - WIND CHILL INDEX
   HX - HEAT INDEX
  VSB - VISIBILITY



USA.gov is the U.S. government's official web portal to all federal, state and local government web resources and services.